User: anonymous   Login
Location: Unspecified
(0.0000°N, 0.0000°E)
Time: 14:45:55
(UTC+00:00)
Language:

Kosmos-2184 - Orbit

View from above orbital plane
View from above orbital plane
View from above satellite
View from above satellite

Ground track
Ground track

The orbit data is extracted from the following two-line orbital elements,

1 21937U 92020A   17206.02732549 +.00000010 +00000-0 -54344-5 0  9990
2 21937 082.9332 358.2714 0033241 185.0502 314.4146 13.73141972266404
Epoch (UTC): 25 July 2017 00:39:20
Eccentricity: 0.0033241
inclination: 82.9332°
perigee height: 964 km
apogee height: 1013 km
right ascension of ascending node: 358.2714°
argument of perigee: 185.0502°
revolutions per day: 13.73141972
mean anomaly at epoch: 314.4146°
orbit number at epoch: 26640

The dashed part of the orbit path shows where the satellite is in the earth's shadow,  

DLR